This is the latest recevied weather packets stored in our database for station/object YO3LAW-13. If no packets are shown the sender has not sent any weather packets the latest 1 day(s).
| Time | Temp. | Humidity | Pressure | Rain* | Wind** | Luminosity | Snow |
|---|---|---|---|---|---|---|---|
| 1777974947 | 25° C | 40% | 1004.9 hPa | 0 mm | 0.45 m/s, 310° | - | - |
| 1777974347 | 25° C | 40% | 1005.1 hPa | 0 mm | 0.45 m/s, 221° | - | - |
| 1777973747 | 24.44° C | 39% | 1005.3 hPa | 0 mm | 0 m/s | - | - |
| 1777973147 | 24.44° C | 39% | 1005.5 hPa | 0 mm | 0.45 m/s, 352° | - | - |
| 1777972547 | 23.89° C | 40% | 1005.3 hPa | 0 mm | 0 m/s | - | - |
| 1777971947 | 23.33° C | 41% | 1005.6 hPa | 0 mm | 0 m/s | - | - |
| 1777971347 | 23.33° C | 41% | 1005.5 hPa | 0 mm | 0.89 m/s, 142° | - | - |
| 1777970747 | 23.33° C | 43% | 1005.5 hPa | 0 mm | 1.34 m/s, 152° | - | - |
| 1777970147 | 22.78° C | 44% | 1005.8 hPa | 0 mm | 0.45 m/s, 121° | - | - |
| 1777969547 | 23.33° C | 42% | 1005.7 hPa | 0 mm | 0 m/s | - | - |
| 1777968947 | 22.78° C | 43% | 1005.8 hPa | 0 mm | 0.45 m/s, 124° | - | - |
| 1777968347 | 22.78° C | 43% | 1005.8 hPa | 0 mm | 0 m/s | - | - |
| 1777967747 | 22.22° C | 43% | 1005.8 hPa | 0 mm | 0.89 m/s, 172° | - | - |
| 1777967147 | 22.22° C | 46% | 1005.8 hPa | 0 mm | 0 m/s | - | - |
| 1777966547 | 21.67° C | 47% | 1005.8 hPa | 0 mm | 0 m/s | - | - |
| 1777965947 | 21.67° C | 46% | 1005.9 hPa | 0 mm | 0.89 m/s, 111° | - | - |
| 1777965347 | 21.67° C | 46% | 1006.1 hPa | 0 mm | 0 m/s | - | - |
| 1777964747 | 20.56° C | 48% | 1006 hPa | 0 mm | 0 m/s | - | - |
| 1777964147 | 20° C | 54% | 1005.9 hPa | 0 mm | 0 m/s | - | - |
| 1777963547 | 19.44° C | 55% | 1005.7 hPa | 0 mm | 0 m/s | - | - |
| 1777962947 | 18.33° C | 58% | 1005.8 hPa | 0 mm | 0.45 m/s, 317° | - | - |
| 1777962347 | 18.89° C | 52% | 1005.6 hPa | 0 mm | 0 m/s | - | - |
| 1777961747 | 18.33° C | 56% | 1005.6 hPa | 0 mm | 0 m/s | - | - |
| 1777961147 | 18.33° C | 58% | 1005.6 hPa | 0 mm | 0 m/s | - | - |
| 1777960547 | 18.33° C | 58% | 1005.7 hPa | 0 mm | 0 m/s | - | - |
* Rain latest hour (hover to see other rain measurements)
** Current wind speed in m/s (hover to see current wind gust speed)